Weather Roundup
Issued by NWS Chicago, IL

Home | Current Version | Previous Version | Text Only | Print | Product List | Glossary On
Versions: 1 2 3 4 5 6 7 8 9 10 11 12 13 14 15 16 17 18 19 20 21 22 23 24 25 26 27 28 29 30 31 32 33 34 35 36 37 38 39 40 41 42 43 44 45 46 47 48 49 50
000
NZUS59 KLOT 231107
HRRLOT

CHICAGO AREA WEATHER ROUNDUP
NATIONAL WEATHER SERVICE CHICAGO/ROMEOVILLE IL
600 AM CDT THU MAR 23 2017

NOTE: "FAIR" INDICATES FEW OR NO CLOUDS BELOW 12,000 FEET WITH NO
SIGNIFICANT WEATHER AND/OR OBSTRUCTIONS TO VISIBILITY.

* THESE STATIONS ARE NOT UNDER NWS QUALITY CONTROL. THEY ALSO MAY NOT
  REPORT WEATHER SUCH AS PRECIPITATION OR FOG.

ILZ005-006-012>014-019>023-231200-
NORTHEAST ILLINOIS

CITY           SKY/WX    TMP DP  RH WIND       PRES   REMARKS
OHARE          CLOUDY    33  19  56 SE10      30.41S WCI  25
MIDWAY         CLOUDY    32  20  61 SE9       30.42F WCI  24
AURORA         CLOUDY    33  21  61 SE14      30.39F WCI  23
LANSING*       CLOUDY    30  22  73 SE7       30.44S WCI  23
JOLIET*        CLOUDY    33  23  68 SE12      30.41F WCI  24
WAUKEGAN       CLOUDY    33  23  66 SE13      30.41S WCI  24
DUPAGE AIRPORT CLOUDY    32  21  64 SE6       30.40S WCI  26
WHEELING       CLOUDY    32  21  64 SE9       30.43S WCI  24
KANKAKEE*      CLOUDY    31  23  72 E10       30.42S WCI  22
MORRIS*        CLOUDY    32  22  67 SE10      30.38F WCI  24
LEWIS AIRPORT* CLOUDY    32  24  73 SE12      30.41S WCI  23
NORTHERLY ISL    N/A     32  21  64 SE12        N/A  WCI  23
$$

WIZ051-052-058>065-066-070>072-231200-
SOUTHEAST WISCONSIN

CITY           SKY/WX    TMP DP  RH WIND       PRES   REMARKS
MILWAUKEE      CLOUDY    33  23  66 S8        30.42R WCI  26
KENOSHA*       CLOUDY    33  23  66 SE12      30.42R WCI  24
RACINE*        CLOUDY    34  21  59 S9        30.44R WCI  27
WAUKESHA       CLOUDY    28  23  80 SE7       30.40F WCI  21
WEST BEND      CLOUDY    27  25  93 SE5       30.40F WCI  21
$$

INZ001>003-010>013-019-020-231200-
NORTHWEST INDIANA

CITY           SKY/WX    TMP DP  RH WIND       PRES   REMARKS
GARY*          NOT AVBL
MICHIGAN CITY* NOT AVBL
RENSSELAER*    NOT AVBL
VALPARAISO     CLOUDY    28  21  75 SE9       30.44S WCI  19
$$

LMZ740>746-231200-
SOUTHERN LAKE MICHIGAN

STATION/POSITION TIME  SKY/WX   TEMP WIND        PRES    VSBY
                                AIR  DIR/SP/G
                 (UTC)          (F)  (DEG/KT/KT) (MB)    (MI)
HARRISON CRIB    1040            33  150/ 20/ 23   N/A
BURNHAM HARBOR   1100            33  130/ 10/ 13   N/A
CALUMET HARBOR   1048            31  140/  7/ 11 1029.8R
BURNS HARBOR     1040            30  140/  9/ 17 1030.8S
MICHIGAN CITY    1040            29  110/ 10/ 16   N/A
$$

ABBREVIATIONS USED IN REMARKS
   TC - TEMPERATURE IN CELSIUS
  WCI - WIND CHILL INDEX
   HX - HEAT INDEX
  VSB - VISIBILITY
$$



USA.gov is the U.S. government's official web portal to all federal, state and local government web resources and services.